TimeCDT,TemperatureF,Dew PointF,Humidity,Sea Level PressureIn,VisibilityMPH,Wind Direction,Wind SpeedMPH,Gust SpeedMPH,PrecipitationIn,Events,Conditions,WindDirDegrees,DateUTC
12:15 AM,75.2,59.7,58,29.92,10.0,SE,4.6,-,N/A,,Overcast,130,2013-09-07 05:15:00
12:35 AM,74.7,59.9,60,29.92,10.0,SSE,3.5,-,N/A,,Overcast,150,2013-09-07 05:35:00
12:55 AM,75.2,59.5,58,29.92,10.0,SSE,3.5,-,N/A,,Mostly Cloudy,160,2013-09-07 05:55:00
1:15 AM,75.0,59.5,58,29.92,10.0,Calm,Calm,-,N/A,,Mostly Cloudy,0,2013-09-07 06:15:00
1:35 AM,74.7,59.7,60,29.92,10.0,Calm,Calm,-,N/A,,Mostly Cloudy,0,2013-09-07 06:35:00
1:55 AM,73.2,59.9,63,29.91,10.0,South,3.5,-,N/A,,Scattered Clouds,170,2013-09-07 06:55:00
2:15 AM,73.4,59.9,63,29.91,10.0,Calm,Calm,-,N/A,,Scattered Clouds,0,2013-09-07 07:15:00
2:35 AM,72.7,59.9,64,29.91,10.0,SE,3.5,-,N/A,,Scattered Clouds,140,2013-09-07 07:35:00
2:55 AM,72.0,60.1,66,29.91,10.0,Calm,Calm,-,N/A,,Scattered Clouds,0,2013-09-07 07:55:00
3:15 AM,71.6,60.1,67,29.91,10.0,Calm,Calm,-,N/A,,Scattered Clouds,0,2013-09-07 08:15:00
3:35 AM,70.2,61.5,74,29.90,10.0,Calm,Calm,-,N/A,,Scattered Clouds,0,2013-09-07 08:35:00
3:55 AM,70.0,60.8,73,29.91,10.0,Calm,Calm,-,N/A,,Scattered Clouds,0,2013-09-07 08:55:00
4:15 AM,70.0,61.0,73,29.90,10.0,Calm,Calm,-,N/A,,Scattered Clouds,0,2013-09-07 09:15:00
4:35 AM,69.1,61.3,76,29.90,10.0,Calm,Calm,-,N/A,,Scattered Clouds,0,2013-09-07 09:35:00
4:55 AM,69.1,61.5,77,29.90,10.0,Calm,Calm,-,N/A,,Scattered Clouds,0,2013-09-07 09:55:00
5:15 AM,68.5,62.1,80,29.90,10.0,Calm,Calm,-,N/A,,Clear,0,2013-09-07 10:15:00
5:35 AM,67.5,61.0,80,29.90,10.0,Calm,Calm,-,N/A,,Clear,0,2013-09-07 10:35:00
5:55 AM,66.2,61.3,84,29.90,10.0,Calm,Calm,-,N/A,,Clear,0,2013-09-07 10:55:00
6:15 AM,65.5,62.2,89,29.91,10.0,Calm,Calm,-,N/A,,Clear,0,2013-09-07 11:15:00
6:35 AM,64.6,61.5,90,29.91,10.0,Calm,Calm,-,N/A,,Clear,0,2013-09-07 11:35:00
6:55 AM,64.4,61.7,91,29.92,10.0,Calm,Calm,-,N/A,,Clear,0,2013-09-07 11:55:00
7:15 AM,64.4,61.2,89,29.92,10.0,Calm,Calm,-,N/A,,Clear,0,2013-09-07 12:15:00
7:35 AM,65.3,61.3,87,29.92,10.0,Calm,Calm,-,N/A,,Scattered Clouds,0,2013-09-07 12:35:00
7:55 AM,66.4,62.1,86,29.93,10.0,Calm,Calm,-,N/A,,Scattered Clouds,0,2013-09-07 12:55:00
8:15 AM,68.5,62.1,80,29.93,10.0,Calm,Calm,-,N/A,,Scattered Clouds,0,2013-09-07 13:15:00
8:35 AM,70.7,61.9,74,29.93,10.0,Calm,Calm,-,N/A,,Scattered Clouds,0,2013-09-07 13:35:00
8:55 AM,73.6,61.3,65,29.93,10.0,Calm,Calm,-,N/A,,Clear,0,2013-09-07 13:55:00
9:15 AM,75.4,62.4,64,29.94,10.0,NW,3.5,-,N/A,,Clear,320,2013-09-07 14:15:00
9:35 AM,78.3,62.6,58,29.94,10.0,NNW,5.8,-,N/A,,Clear,340,2013-09-07 14:35:00
9:55 AM,80.1,62.8,55,29.94,10.0,NNE,9.2,-,N/A,,Clear,20,2013-09-07 14:55:00
10:15 AM,80.8,63.1,55,29.94,10.0,North,9.2,-,N/A,,Clear,10,2013-09-07 15:15:00
10:35 AM,81.0,63.9,56,29.95,10.0,North,9.2,-,N/A,,Clear,10,2013-09-07 15:35:00
10:55 AM,82.6,64.0,53,29.94,10.0,North,9.2,-,N/A,,Clear,10,2013-09-07 15:55:00
11:15 AM,84.0,64.4,52,29.95,10.0,NE,8.1,-,N/A,,Clear,40,2013-09-07 16:15:00
11:35 AM,84.7,63.7,49,29.95,10.0,NNE,6.9,-,N/A,,Clear,20,2013-09-07 16:35:00
11:55 AM,84.9,63.7,49,29.95,10.0,NNW,9.2,-,N/A,,Clear,340,2013-09-07 16:55:00
12:15 PM,86.9,62.8,44,29.95,10.0,North,4.6,-,N/A,,Clear,10,2013-09-07 17:15:00
12:35 PM,88.5,61.3,40,29.94,10.0,NNE,6.9,-,N/A,,Clear,20,2013-09-07 17:35:00
12:55 PM,88.0,60.8,40,29.94,10.0,North,9.2,-,N/A,,Clear,360,2013-09-07 17:55:00
1:15 PM,86.5,60.6,42,29.95,10.0,North,9.2,-,N/A,,Clear,350,2013-09-07 18:15:00
1:35 PM,88.5,61.5,40,29.94,10.0,North,8.1,-,N/A,,Clear,360,2013-09-07 18:35:00
1:55 PM,87.8,60.6,40,29.95,10.0,North,12.7,-,N/A,,Clear,350,2013-09-07 18:55:00
2:15 PM,86.2,61.7,44,29.95,10.0,North,10.4,-,N/A,,Clear,350,2013-09-07 19:15:00
2:35 PM,87.1,61.9,43,29.95,10.0,North,8.1,-,N/A,,Clear,360,2013-09-07 19:35:00
2:55 PM,89.1,61.0,39,29.95,10.0,North,10.4,17.3,N/A,,Scattered Clouds,360,2013-09-07 19:55:00
3:15 PM,89.2,61.2,39,29.95,10.0,NNE,9.2,-,N/A,,Mostly Cloudy,30,2013-09-07 20:15:00
3:35 PM,89.6,60.4,37,29.95,10.0,NNE,12.7,19.6,N/A,,Scattered Clouds,20,2013-09-07 20:35:00
3:55 PM,87.4,61.0,41,29.95,10.0,North,9.2,-,N/A,,Scattered Clouds,360,2013-09-07 20:55:00
4:15 PM,87.3,59.9,40,29.95,10.0,NE,12.7,-,N/A,,Scattered Clouds,40,2013-09-07 21:15:00
4:35 PM,88.7,60.4,39,29.96,10.0,North,11.5,17.3,N/A,,Clear,360,2013-09-07 21:35:00
4:55 PM,86.9,61.3,42,29.96,10.0,North,17.3,20.7,N/A,,Clear,10,2013-09-07 21:55:00
5:15 PM,85.8,60.4,42,29.97,10.0,NNE,15.0,-,N/A,,Clear,20,2013-09-07 22:15:00
5:35 PM,84.4,61.5,46,29.98,10.0,North,15.0,-,N/A,,Clear,10,2013-09-07 22:35:00
5:55 PM,82.0,65.3,57,29.99,10.0,NNE,19.6,24.2,N/A,,Clear,30,2013-09-07 22:55:00
6:15 PM,78.4,63.9,61,30.00,10.0,NNE,17.3,21.9,N/A,,Clear,20,2013-09-07 23:15:00
6:35 PM,76.8,63.5,63,30.01,10.0,NNE,15.0,20.7,N/A,,Clear,20,2013-09-07 23:35:00
6:55 PM,75.2,63.0,66,30.02,10.0,North,11.5,18.4,N/A,,Clear,10,2013-09-07 23:55:00
7:15 PM,73.2,62.6,69,30.02,10.0,NNE,16.1,-,N/A,,Clear,20,2013-09-08 00:15:00
7:35 PM,71.6,61.7,71,30.03,10.0,NNE,10.4,-,N/A,,Clear,20,2013-09-08 00:35:00
7:55 PM,70.3,61.3,73,30.03,10.0,NNE,10.4,-,N/A,,Clear,20,2013-09-08 00:55:00
8:15 PM,69.3,60.8,74,30.04,10.0,NNE,10.4,17.3,N/A,,Clear,30,2013-09-08 01:15:00
8:35 PM,68.4,60.6,76,30.05,10.0,NNE,10.4,-,N/A,,Clear,20,2013-09-08 01:35:00
8:55 PM,67.6,59.9,76,30.06,10.0,NNE,6.9,-,N/A,,Clear,30,2013-09-08 01:55:00
9:15 PM,67.1,59.9,78,30.07,10.0,NNE,9.2,-,N/A,,Clear,20,2013-09-08 02:15:00
9:35 PM,66.2,59.9,80,30.08,10.0,NNE,5.8,-,N/A,,Clear,20,2013-09-08 02:35:00
9:55 PM,65.5,59.9,82,30.08,10.0,NNE,5.8,-,N/A,,Clear,30,2013-09-08 02:55:00
10:15 PM,64.6,59.5,84,30.09,10.0,NNE,5.8,-,N/A,,Clear,20,2013-09-08 03:15:00
10:35 PM,64.0,59.2,84,30.08,10.0,NNE,4.6,-,N/A,,Clear,30,2013-09-08 03:35:00
10:55 PM,63.7,59.0,85,30.09,10.0,NNE,5.8,-,N/A,,Clear,30,2013-09-08 03:55:00
11:15 PM,63.9,58.5,83,30.09,10.0,NE,5.8,-,N/A,,Clear,40,2013-09-08 04:15:00
11:35 PM,63.7,58.1,82,30.09,10.0,NE,5.8,-,N/A,,Clear,50,2013-09-08 04:35:00
11:55 PM,63.5,57.0,79,30.09,10.0,ENE,8.1,-,N/A,,Clear,60,2013-09-08 04:55:00